Погода Шауляй

Погода Шауляй : погода сейчас, прогноз погоды и архив. Всё, что Вы хотите узнать о погоде Шауляй!

Поиск расширенной информации на нашем сайте:

Другие новости

Новости СМИ2

Главная страница сайта

Новости сайта

03.07.2017

Напоминаем, что на нашем специализированном сайте Метеоцентр.Азия вы можете получить высокодетализированные автоматические прогнозы погоды по пунктам России, СНГ и мира в авиационном формате (включающие направление и скорость ветра, видимость, явления погоды, количество и форму облачности, нижнюю и верхнюю границу облачности).


Погода Шауляй - сегодня

Время (UTC), дата Ветер
(°,м/с) 
Видим.   Явления Облачность Т
(°С)
Тd
(°С)
f(%) Тe
(°С)
Pmin
(гПа)
dP
(гПа)
Po
(мм)
O2
(г/м3)
Тmin Tmax R s Состояние
почвы
18 21.09.17 060 (СВ) 2-7{11}  7000 м  сильн. морось{ливн. осадки}  10/10 240 м 
[St]
+12 +11.2 95 +15  1016.7  0.2  753  288    +12.8  11     
21 21.09.17 070 (В) 2-5{08}  6000 м  морось  10/10 150 м 
[St]
+11.9 +11.1 95 +15  1016.5  -0.2  753  289           
00 22.09.17 050 (СВ) 1-3{05}  20000 м  {морось}  10/10 750 м 
[Sc]
+11.9 +11.1 95 +16  1017  0.5  753  289      0.4     
03 22.09.17 070 (В) 1-4{06}  20000 м  {ливн. осадки}  10/10 150 м 
[St]
+12.1 +11.3 95 +16  1016.5  -0.5  753  288           
06 22.09.17 080 (В) 3-4{06}  20000 м  {ливн. осадки}  10/10 180 м 
[St]
+12.6 +11.9 95 +16  1017.8  1.3  754  288  +11.8    0.8    мокрая 
09 22.09.17 100 (В) 2-4{06}  20000 м    8/5 360 м верхняя 
[Sc|Ci fib]
+16.5 +13.8 84 +24  1018.5  0.9  754  284           
12 22.09.17 100 (В) 2-5{06}  20000 м    10/10 450 м 
[Sc]
+16.2 +13.3 83 +23  1019.7  1.2  755  285           
15 22.09.17 100 (В) 1-3{07}  20000 м    10/10 600 м 
[Sc]
+16.2 +13.3 83 +24  1020.6  0.8  756  285           
18 22.09.17 тихо () -2{04}  14000 м    ясно 
+13.7 +12.4 92 +18  1021.4  0.7  756  288    +17.2       
21 22.09.17 тихо () -1{03}  0200 м  туман  ясно 
+11.2 +10.4 95 +13  1021.8  0.3  757  291           
00 23.09.17 080 (В) 1-3{04}  15000 м  {туман}  ясно 
+11.8 +11.2 96 +16  1022.6  0.8  757  290           
03 23.09.17 090 (В) 1-3{04}  12000 м    ясно 
+10.9 +10.3 96 +13  1023  0.4  757  292           
06 23.09.17 110 (В) 2-5{05}  19000 м    1/0 верхняя 
[Ci fib]
+11.2 +10.3 94 +12  1023.8  0.8  758  292  +10.5        влажная 
09 23.09.17 080 (В) 3-5{06}  20000 м    1/0 верхняя 
[Ci fib]
+14.7 +11.5 81 +18  1023.7  0.1  758  288           
12 23.09.17 090 (В) 4-7{08}  20000 м    3/0 верхняя 
[Ci fib]
+17.8 +12.6 72 +23  1023.8  0.2  758  284           
15 23.09.17 100 (В) 2-5{08}  20000 м    3/0 средняя, верхняя 
[Ac trans|Ci sp]
+17.8 +12.6 72 +24  1024.1  0.3  758  284           
18 23.09.17 100 (В) 2-5{05}  20000 м    ясно 
+14.5 +11.8 84 +18  1025.9  1.6  760  288    +18.9       
21 23.09.17 110 (В) 1-3{05}  20000 м    ясно 
+12.4 +10.5 88 +16  1027.2  1.2  761  291           
00 24.09.17 110 (В) 1-3{04}  20000 м    4/0 верхняя 
[Ci fib]
+11 +10 94 +13  1028  0.7  761  293           
03 24.09.17 тихо () -0{04}  4200 м  местами туман поземный  ясно 
+9.5 +8.6 94 +10  1028.5  0.4  761  295           
06 24.09.17 100 (В) 1-3{04}  20000 м    ясно 
+10.4 +9.8 96 +13  1029.2  0.8  762  294  +8.3        влажная 
09 24.09.17 090 (В) 3-6{06}  20000 м    ясно 
+16 +11.2 73 +18  1029.7  0.7  763  288           
12 24.09.17 130 (ЮВ) 3-7{09}  20000 м    ясно 
+19.6 +10.2 55 +21  1029.7  0.2  763  285           
15 24.09.17 080 (В) 3-6{09}  20000 м    ясно 
+18.2 +10.9 62 +21  1029.8  763  286           
18 24.09.17 090 (В) 1-4{06}  20000 м    ясно 
+13.8 +10.5 80 +16  1030.9  0.9  763  291    +19.8       
Время (UTC), дата Ветер
(°,м/с) 
Видим.   Явления Облачность Т
(°С)
Тd
(°С)
f(%) Тe
(°С)
Pmin
(гПа)
dP
(гПа)
Po
(мм)
O2
(г/м3)
Тmin Tmax R s Состояние
почвы

Для получения пояснительной информации подведите курсор к названию столбца.

ПОГОДА Шауляй - архив

Всё, что Вы хотите узнать о погоде Шауляй - удобно и подробно!

Выберите нужную дату (начиная с 1 января 2015* года) и нажмите кнопку "Найти".
Будут отображены архивные сводки погоды по пункту Шауляй, начиная с указанной даты.


Отображать данные в формате CSV (для использования в таблицах Excel)


Внимание! Наш архив погоды предназначен исключительно для личного некоммерческого использования в познавательных целях. Если Вам необходимы официальные справки о состоянии погоды (для производственных, юридических, коммерческих и т.п. целей), обращайтесь в органы Росгидромета.

*Примечание: данная дата относится к архиву по метеостанциям СССР (Россия, СНГ, Балтия).
Архив по метеостанциям Зарубежной Европы и Азии (кроме Китая) хранится 10 дней, по другим регионам земного шара (Китай, Африка, Америка, Австралия, Океания) - 1 день.

Шауляй - район местоположения метеостанции


Название, широта, долгота, высота метеостанции:
Шауляй 55.9°ш. 23.3°д. 107 м над ур. моря [Литва]

Дополнительная информация

В oтличие oт бoльшинства пoгoдных сайтoв мы публикуем пoдрoбную метеoинфoрмацию в детальнoм прoфессиoнальнoм фoрмате.

Характеристики температуры и влажнoсти вoздуха измеряются на высoте 2 м в тени вдали oт зданий и деревьев.
Скoрoсть ветра измеряется на высoте 10 м (на урoвне рoста челoвека скoрoсть ветра ниже в 1.5-2 раза). Если метеoстанция нахoдится в гoрoде или в лесу, тo скoрoсть ветра занижена на 2-4 м/с пo сравнению с oткрытым местoм. Скoрoсть ветра над акватoриями крупных рек и oзёр, а также на вершинах хoлмoв на 2-5 м/с выше, чем в oбычных услoвиях.
Атмoсфернoе давление в разных тoчках местнoсти мoжет значительнo oтличаться oт давления на метеoстанции, в зависимoсти oт услoвий рельефа (при пoдъёме на 10 м давление пoнижается примернo на 1 мм рт.ст.).